Regional Weather Roundup
Issued by NWS Memphis, TN

Home | Current Version | Previous Version | Text Only | Print | Product List | Glossary On
Versions: 1 2 3 4 5 6 7 8 9 10 11 12 13 14 15 16 17 18 19 20 21 22 23 24 25 26 27 28 29 30 31 32 33 34 35 36 37 38 39 40 41 42 43 44 45 46 47 48 49 50
000
ASUS44 KMEG 300000
RWRMEG
MEMPHIS CWA HOURLY WEATHER ROUNDUP
NATIONAL WEATHER SERVICE MEMPHIS TN
700 PM CDT FRI APR 29 2016

...WEST TENNESSEE...

CITY           SKY/WX    TMP DP  RH WIND       PRES   REMARKS
MEMPHIS INTL   CLOUDY    67  61  81 SE12G20   29.85F
6HR MIN TEMP:  61; 6HR MAX TEMP:  67; 6HR PCP:  0.51;

NWS MEMPHIS      N/A     64 N/A N/A MISG        N/A
JACKSON        CLOUDY    64  59  83 E8        29.89F
6HR MIN TEMP:  62; 6HR MAX TEMP:  66;

LEXINGTON      MOCLDY    64  57  77 SE6       29.92F
DYERSBURG      CLOUDY    64  59  82 SE8         N/A
6HR MIN TEMP:  61; 6HR MAX TEMP:  64;

UNION CITY     MOCLDY    63  61  94 E6        29.89F


...EASTERN ARKANSAS...

CITY           SKY/WX    TMP DP  RH WIND       PRES   REMARKS
JONESBORO      CLOUDY    65  62  90 E8        29.84S
6HR MIN TEMP:  58; 6HR MAX TEMP:  65; 6HR PCP:  0.50;

WEST MEMPHIS   CLOUDY    65  64  97 SE13      29.82F
6HR MIN TEMP:  60; 6HR MAX TEMP:  66; 6HR PCP:  0.54;

BATESVILLE     CLOUDY    64  61  88 E7        29.82F
6HR MIN TEMP:  57; 6HR MAX TEMP:  64;

WALNUT RIDGE   CLOUDY    64  59  82 E10       29.85S
6HR MIN TEMP:  55; 6HR MAX TEMP:  64; 6HR PCP:  0.11;

BLYTHEVILLE    CLOUDY    66  60  81 SE13      29.86F
6HR MIN TEMP:  60; 6HR MAX TEMP:  66; 6HR PCP:  0.73;

SEARCY         CLOUDY    66  64  94 E5        29.81F
6HR MIN TEMP:  57; 6HR MAX TEMP:  66; 6HR PCP: 19.80;

STUTTGART      CLOUDY    66  63  88 SE12      29.79F
6HR MIN TEMP:  61; 6HR MAX TEMP:  68; 6HR PCP:  0.47;

PINE BLUFF     CLOUDY    67  66  97 S6        29.81S
6HR MIN TEMP:  64; 6HR MAX TEMP:  69; 6HR PCP:  0.14;

MONTICELLO     CLOUDY    70  68  93 E12       29.77F
6HR MIN TEMP:  70; 6HR MAX TEMP:  76; 6HR PCP:  0.04;



...NORTH MISSISSIPPI...

CITY           SKY/WX    TMP DP  RH WIND       PRES   REMARKS
TUPELO         CLOUDY    65  61  87 NE9       29.90F
6HR MIN TEMP:  64; 6HR MAX TEMP:  77; 6HR PCP:  1.10;

OLIVE BRANCH   MOCLDY    63  63 100 SE12      29.86F
TUNICA         CLOUDY    64  63  94 E13       29.85F
GREENWOOD      CLOUDY    69  66  90 E13       29.84F
6HR MIN TEMP:  69; 6HR MAX TEMP:  79; 6HR PCP:  0.35;

COLUMBUS       LGT RAIN  64  63  94 E14       29.91F


...SOUTHEAST MISSOURI...

CITY           SKY/WX    TMP DP  RH WIND       PRES   REMARKS
KENNETT        FAIR      66  63  88 E12       29.85F FOG
WEST PLAINS    CLOUDY    59  56  89 E10       29.85F
6HR MIN TEMP:  56; 6HR MAX TEMP:  60; 6HR PCP:  0.01;

POPLAR BLUFF   CLOUDY    62  58  86 E7        29.89F
6HR MIN TEMP:  56; 6HR MAX TEMP:  62; 6HR PCP:  0.20;

CAPE GIRARDEAU CLOUDY    61  57  87 NE8       29.93F
6HR MIN TEMP:  59; 6HR MAX TEMP:  62; 6HR PCP:  0.11;



...NORTHWEST ALABAMA...

CITY           SKY/WX    TMP DP  RH WIND       PRES   REMARKS


...MIDDLE TENNESSEE...

CITY           SKY/WX    TMP DP  RH WIND       PRES   REMARKS
NASHVILLE      CLOUDY    68  61  78 SE6       29.95F
6HR MIN TEMP:  68; 6HR MAX TEMP:  81; 6HR PCP: TRACE;

CLARKSVILLE    MOCLDY    64  60  87 SE3       29.95F
6HR MIN TEMP:  64; 6HR MAX TEMP:  70; 6HR PCP:  0.05;

COLUMBIA         N/A    N/A N/A N/A SE3       29.95F


...WESTERN KENTUCKY...

CITY           SKY/WX    TMP DP  RH WIND       PRES   REMARKS
PADUCAH        CLOUDY    62  58  86 E8        29.93F
6HR MIN TEMP:  60; 6HR MAX TEMP:  63; 6HR PCP:  0.15;



...CENTRAL ARKANSAS...

CITY           SKY/WX    TMP DP  RH WIND       PRES   REMARKS
LITTLE ROCK    LGT RAIN  70  66  87 S10       29.79F
6HR MIN TEMP:  64; 6HR MAX TEMP:  70; 6HR PCP:  0.11;



SKY/WX REPORTED AS FAIR MEANS FEW OR NO CLOUDS BELOW
12 THOUSAND FEET.





USA.gov is the U.S. government's official web portal to all federal, state and local government web resources and services.